GW5899 Weather Reports


time (UTC)temp
F
wind
direction
speed
knots
gust
knots
rain 1hr
in
rain 24hr
in
rain mn
in
humidity
%
barometer
mb
20260509112506 46 157 1.7 2.6 0.00 0.00 0.00 77 1007.5
20260509112002 46 98 1.7 3.5 0.00 0.00 0.00 75 1007.4
20260509111459 46 184 2.6 2.6 0.00 0.00 0.00 74 1007.5
20260509110957 46 185 1.7 2.6 0.00 0.00 0.00 74 1007.6
20260509110453 45 176 2.6 2.6 0.00 0.00 0.00 74 1007.4
20260509105950 45 217 1.7 1.7 0.00 0.00 0.00 74 1007.4
20260509105449 45 167 2.6 2.6 0.00 0.00 0.00 74 1007.4
20260509104946 45 177 2.6 3.5 0.00 0.00 0.00 73 1007.5
20260509104443 45 201 1.7 2.6 0.00 0.00 0.00 74 1007.4
20260509103940 45 194 2.6 3.5 0.00 0.00 0.00 74 1007.4
20260509103437 45 186 1.7 2.6 0.00 0.00 0.00 73 1007.2
20260509102936 44 172 2.6 2.6 0.00 0.00 0.00 73 1007.1
20260509102432 44 168 1.7 2.6 0.00 0.00 0.00 73 1007.2
20260509101928 44 194 2.6 2.6 0.00 0.00 0.00 73 1007.1
20260509101425 44 156 5.2 7.0 0.00 0.00 0.00 73 1007.2
20260509100922 44 181 2.6 3.5 0.00 0.00 0.00 72 1007.1
20260509100419 44 176 3.5 3.5 0.00 0.00 0.00 72 1007.4
20260509095916 44 142 3.5 3.5 0.00 0.00 0.00 73 1007.2
20260509095413 44 163 4.3 6.1 0.00 0.00 0.00 72 1007.2
20260509094910 44 176 3.5 3.5 0.00 0.00 0.00 72 1007.2
20260509094407 44 137 3.5 3.5 0.00 0.00 0.00 72 1007.3
20260509093905 44 186 2.6 2.6 0.00 0.00 0.00 72 1007.3
20260509093402 44 178 2.6 2.6 0.00 0.00 0.00 71 1007.3
20260509092900 44 229 3.5 5.2 0.00 0.00 0.00 70 1007.3
20260509092357 44 196 3.5 3.5 0.00 0.00 0.00 71 1007.3
20260509091855 44 191 1.7 1.7 0.00 0.00 0.00 72 1007.3
20260509091352 44 186 1.7 1.7 0.00 0.00 0.00 71 1007.3
20260509090849 44 206 1.7 1.7 0.00 0.00 0.00 71 1007.4
20260509090347 44 189 1.7 1.7 0.00 0.00 0.00 70 1007.4
20260509085844 45 198 1.7 1.7 0.00 0.00 0.00 69 1007.3
20260509085341 45 216 0.9 1.7 0.00 0.00 0.00 69 1007.4
20260509084837 45 209 1.7 1.7 0.00 0.00 0.00 68 1007.5
20260509084334 45 191 1.7 1.7 0.00 0.00 0.00 69 1007.4
20260509083832 44 186 1.7 2.6 0.00 0.00 0.00 69 1007.5
20260509083329 44 200 1.7 1.7 0.00 0.00 0.00 70 1007.7
20260509082825 44 165 2.6 3.5 0.00 0.00 0.00 70 1007.6
20260509082322 44 161 2.6 2.6 0.00 0.00 0.00 69 1007.8
20260509081820 44 163 2.6 2.6 0.00 0.00 0.00 70 1007.8
20260509081316 44 173 2.6 2.6 0.00 0.00 0.00 70 1007.8
20260509080815 44 167 1.7 2.6 0.00 0.00 0.00 71 1007.7
20260509080312 44 174 1.7 2.6 0.00 0.00 0.00 71 1007.7
20260509075810 44 191 2.6 2.6 0.00 0.00 0.00 71 1007.9
20260509075307 44 156 4.3 5.2 0.00 0.00 0.00 71 1008.0
20260509074804 44 194 1.7 1.7 0.00 0.00 0.00 72 1007.9
20260509074302 44 160 2.6 2.6 0.00 0.00 0.00 71 1007.9
20260509073757 44 150 2.6 2.6 0.00 0.00 0.00 70 1008.2
20260509073254 44 161 2.6 2.6 0.00 0.00 0.00 71 1008.0
20260509072750 44 164 2.6 2.6 0.00 0.00 0.00 70 1008.1
20260509072248 44 178 2.6 2.6 0.00 0.00 0.00 71 1008.2
20260509071744 44 172 3.5 3.5 0.00 0.00 0.00 70 1008.2
20260509071241 44 162 2.6 2.6 0.00 0.00 0.00 70 1008.3
20260509070738 45 177 1.7 1.7 0.00 0.00 0.00 69 1008.4
20260509070235 45 167 1.7 2.6 0.00 0.00 0.00 68 1008.4
20260509065731 45 169 3.5 3.5 0.00 0.00 0.00 67 1008.4
20260509065227 45 167 1.7 2.6 0.00 0.00 0.00 67 1008.3
20260509064724 45 166 2.6 2.6 0.00 0.00 0.00 66 1008.4
20260509064222 45 181 2.6 2.6 0.00 0.00 0.00 67 1008.5
20260509063719 46 115 3.5 3.5 0.00 0.00 0.00 66 1008.4
20260509063215 46 173 1.7 2.6 0.00 0.00 0.00 66 1008.6
20260509062712 46 183 2.6 3.5 0.00 0.00 0.00 66 1008.8
20260509062209 45 169 3.5 3.5 0.00 0.00 0.00 66 1008.8
20260509061706 45 198 1.7 2.6 0.00 0.00 0.00 66 1008.8
20260509061204 45 182 1.7 1.7 0.00 0.00 0.00 66 1009.0
20260509060701 46 184 1.7 1.7 0.00 0.00 0.00 66 1009.2
20260509060157 46 162 2.6 2.6 0.00 0.00 0.00 65 1008.9
20260509055653 46 163 1.7 2.6 0.00 0.00 0.00 66 1009.0
20260509055149 46 172 1.7 2.6 0.00 0.00 0.00 66 1009.2
20260509054646 46 197 1.7 1.7 0.00 0.00 0.00 66 1008.9
20260509054143 46 209 1.7 1.7 0.00 0.00 0.00 67 1009.2
20260509053642 46 200 1.7 2.6 0.00 0.00 0.00 67 1009.5
20260509053138 46 188 1.7 2.6 0.00 0.00 0.00 66 1009.4
20260509052636 46 183 2.6 2.6 0.00 0.00 0.00 66 1009.4
20260509052133 46 168 1.7 2.6 0.00 0.00 0.00 67 1009.5
20260509051631 46 225 1.7 2.6 0.00 0.00 0.00 67 1009.6
20260509051128 45 215 1.7 1.7 0.00 0.00 0.00 67 1009.5
20260509050625 46 207 0.9 1.7 0.00 0.00 0.00 67 1009.5
20260509050121 46 196 1.7 1.7 0.00 0.00 0.00 68 1009.5
20260509045620 45 196 1.7 2.6 0.00 0.00 0.00 68 1009.6
20260509045116 45 203 1.7 1.7 0.00 0.00 0.00 68 1009.6
20260509044613 45 213 1.7 1.7 0.00 0.00 0.00 68 1009.6
20260509044110 45 199 1.7 1.7 0.00 0.00 0.00 68 1009.7
20260509043607 45 204 1.7 1.7 0.00 0.00 0.00 69 1009.8
20260509043102 45 216 1.7 1.7 0.00 0.00 0.00 69 1009.8
20260509042559 45 213 1.7 1.7 0.00 0.00 0.00 69 1009.8
20260509042055 45 219 0.9 1.7 0.00 0.00 0.00 69 1009.7
20260509041552 45 181 1.7 1.7 0.00 0.00 0.00 69 1009.9
20260509041049 45 203 1.7 1.7 0.00 0.00 0.00 69 1009.9
20260509040548 45 204 1.7 1.7 0.00 0.00 0.00 70 1010.0
20260509040044 45 192 1.7 1.7 0.00 0.03 0.03 71 1010.1
20260509035541 45 189 1.7 1.7 0.00 0.03 0.03 71 1010.2
20260509035038 45 210 1.7 1.7 0.00 0.03 0.03 71 1010.1
20260509034536 45 198 1.7 1.7 0.00 0.03 0.03 71 1009.9
20260509034033 45 201 1.7 1.7 0.00 0.03 0.03 69 1010.1
20260509033530 46 139 2.6 2.6 0.00 0.03 0.03 69 1010.1
20260509033027 46 190 0.9 1.7 0.00 0.03 0.03 69 1010.0
20260509032524 46 170 1.7 2.6 0.00 0.03 0.03 68 1010.0
20260509032021 46 198 1.7 1.7 0.00 0.03 0.03 68 1010.1
20260509031518 46 185 1.7 1.7 0.00 0.03 0.03 67 1010.1
20260509031015 46 198 1.7 1.7 0.00 0.03 0.03 67 1010.2
20260509030514 46 191 1.7 1.7 0.00 0.03 0.03 66 1010.2
20260509030010 46 189 1.7 1.7 0.00 0.03 0.03 66 1010.3
20260509025506 46 210 1.7 1.7 0.00 0.03 0.03 67 1010.3
20260509025001 46 204 1.7 1.7 0.00 0.03 0.03 68 1010.1
20260509024458 47 194 1.7 1.7 0.00 0.03 0.03 67 1010.3
20260509023954 47 197 1.7 1.7 0.00 0.03 0.03 67 1010.3
20260509023452 46 174 1.7 2.6 0.00 0.03 0.03 67 1010.2
20260509022949 46 200 1.7 1.7 0.00 0.03 0.03 68 1010.2
20260509022445 46 166 1.7 2.6 0.00 0.03 0.03 67 1010.2
20260509021943 45 213 0.9 1.7 0.00 0.03 0.03 70 1010.3
20260509021439 44 214 0.9 0.9 0.00 0.03 0.03 72 1010.4
20260509020937 43 217 0.9 0.9 0.00 0.03 0.03 77 1010.1
20260509020435 44 178 0.9 1.7 0.00 0.03 0.03 76 1010.2
20260509015932 42 222 0.0 0.0 0.00 0.03 0.03 79 1010.3
20260509015431 42 235 0.0 0.0 0.00 0.03 0.03 82 1010.2
20260509014927 43 231 0.0 0.0 0.00 0.03 0.03 81 1010.2
20260509014424 43 228 0.0 0.0 0.00 0.03 0.03 79 1010.3
20260509013920 43 207 0.0 0.0 0.00 0.03 0.03 79 1010.4
20260509013417 43 218 0.0 0.0 0.00 0.03 0.03 78 1010.4
20260509012913 44 249 0.0 0.0 0.00 0.03 0.03 74 1010.3
20260509012409 45 224 0.0 0.0 0.00 0.03 0.03 73 1010.2
20260509011907 45 234 0.0 0.0 0.00 0.03 0.03 71 1010.1
20260509011404 45 230 0.0 0.0 0.00 0.03 0.03 69 1010.1
20260509010902 45 225 0.9 0.9 0.00 0.03 0.03 71 1010.0
20260509010359 45 229 0.0 0.0 0.00 0.03 0.03 72 1009.8
20260509005856 46 221 0.0 0.0 0.00 0.03 0.03 70 1009.6
20260509005354 46 236 0.0 0.0 0.00 0.03 0.03 69 1009.6
20260509004854 46 235 0.0 0.0 0.00 0.03 0.03 68 1009.7
20260509004351 46 232 0.0 0.0 0.00 0.03 0.03 69 1009.6
20260509003849 46 236 0.0 0.0 0.00 0.03 0.03 68 1009.6
20260509003346 47 235 0.0 0.0 0.00 0.03 0.03 66 1009.5
20260509002843 47 239 0.0 0.0 0.00 0.03 0.03 64 1009.6
20260509002341 48 244 0.0 0.0 0.00 0.03 0.03 63 1009.7
20260509001838 48 229 0.0 0.0 0.00 0.03 0.03 62 1009.4
20260509001334 49 239 0.0 0.0 0.00 0.03 0.03 61 1009.4
20260509000832 49 204 0.9 0.9 0.00 0.03 0.03 61 1009.4
20260509000329 49 256 0.9 0.9 0.00 0.03 0.03 59 1009.4
20260508235825 50 89 1.7 1.7 0.00 0.03 0.03 58 1009.4
20260508235322 50 163 0.9 0.9 0.00 0.03 0.03 59 1009.6
20260508234820 49 209 0.0 0.0 0.00 0.03 0.03 59 1009.3
20260508234316 50 286 0.0 0.0 0.00 0.03 0.03 60 1009.4
20260508233814 50 291 0.0 0.9 0.00 0.03 0.03 59 1009.4
20260508233313 50 295 0.9 0.9 0.00 0.03 0.03 58 1009.3
20260508232810 50 294 0.9 1.7 0.00 0.03 0.03 61 1009.2
20260508232307 51 254 0.9 0.9 0.00 0.03 0.03 59 1009.3
20260508231805 51 182 0.9 0.9 0.00 0.03 0.03 60 1009.2
20260508231300 52 90 2.6 2.6 0.00 0.03 0.03 54 1008.9
20260508230757 52 276 1.7 1.7 0.00 0.03 0.03 59 1009.0
20260508230254 52 0 2.6 2.6 0.00 0.03 0.03 56 1009.4
20260508225752 52 276 0.0 0.9 0.00 0.03 0.03 53 1009.0
20260508225248 52 215 1.7 1.7 0.00 0.03 0.03 54 1009.3
20260508224746 52 291 1.7 1.7 0.00 0.03 0.03 52 1009.4
20260508224243 52 10 2.6 2.6 0.00 0.03 0.03 51 1009.4
20260508223741 52 16 2.6 2.6 0.00 0.03 0.03 53 1009.4
20260508223238 52 4 2.6 2.6 0.00 0.03 0.03 52 1009.2
20260508222735 53 306 1.7 1.7 0.00 0.03 0.03 52 1009.3
20260508222232 53 302 1.7 2.6 0.00 0.03 0.03 52 1009.4
20260508221728 52 347 3.5 3.5 0.00 0.03 0.03 53 1009.5
20260508221225 53 354 6.1 7.0 0.00 0.03 0.03 54 1009.4
20260508220721 52 5 5.2 6.1 0.00 0.03 0.03 54 1009.5
20260508220218 52 24 6.1 7.0 0.00 0.03 0.03 58 1009.6
20260508215714 53 338 5.2 5.2 0.00 0.03 0.03 59 1009.7
20260508215211 53 1 3.5 3.5 0.00 0.03 0.03 57 1009.6
20260508214708 54 324 2.6 2.6 0.00 0.03 0.03 52 1009.7
20260508214205 54 10 3.5 5.2 0.00 0.03 0.03 54 1009.6
20260508213701 54 6 3.5 5.2 0.00 0.03 0.03 50 1009.7
20260508213158 55 355 2.6 3.5 0.00 0.03 0.03 50 1009.4
20260508212654 55 210 0.9 1.7 0.00 0.03 0.03 49 1009.6
20260508212151 55 308 0.9 1.7 0.00 0.03 0.03 51 1009.7
20260508211652 55 314 2.6 3.5 0.00 0.03 0.03 49 1009.6
20260508211148 54 282 0.9 0.9 0.00 0.03 0.03 54 1009.5
20260508210645 55 314 1.7 1.7 0.00 0.03 0.03 52 1009.7
20260508210143 55 344 1.7 2.6 0.00 0.03 0.03 58 1009.5
20260508205639 53 259 0.0 0.9 0.00 0.03 0.03 51 1009.7
20260508205136 54 341 3.5 3.5 0.00 0.03 0.03 59 1009.9
20260508204632 53 316 1.7 2.6 0.00 0.03 0.03 57 1009.7
20260508204128 53 327 3.5 3.5 0.00 0.03 0.03 63 1009.8
20260508203624 53 295 1.7 2.6 0.00 0.03 0.03 59 1010.0
20260508203121 53 18 4.3 5.2 0.00 0.03 0.03 57 1010.0
20260508202617 52 284 0.9 0.9 0.00 0.03 0.03 55 1010.1
20260508202114 52 351 2.6 3.5 0.00 0.03 0.03 58 1010.0
20260508201611 52 339 6.1 7.8 0.00 0.03 0.03 59 1010.3
20260508201108 51 329 5.2 6.1 0.00 0.03 0.03 62 1010.2
20260508200605 52 5 5.2 6.1 0.00 0.03 0.03 62 1010.2
20260508200100 51 358 7.0 7.8 0.00 0.03 0.03 66 1010.2
20260508195557 51 347 7.0 7.8 0.00 0.03 0.03 66 1010.3
20260508195053 52 353 4.3 5.2 0.00 0.03 0.03 67 1010.2
20260508194550 51 333 2.6 2.6 0.00 0.03 0.03 65 1010.4
20260508194048 52 351 2.6 3.5 0.00 0.03 0.03 66 1010.4
20260508193544 52 29 7.0 7.8 0.00 0.03 0.03 67 1010.4
20260508193041 53 30 4.3 7.0 0.00 0.03 0.03 67 1010.5
20260508192538 52 26 1.7 2.6 0.00 0.03 0.03 67 1010.6
20260508192035 53 347 5.2 7.0 0.00 0.03 0.03 68 1010.6
20260508191531 53 14 4.3 6.1 0.00 0.03 0.03 64 1010.7
20260508191028 52 294 3.5 3.5 0.00 0.03 0.03 68 1010.5
20260508190525 53 273 1.7 2.6 0.00 0.03 0.03 61 1010.6
20260508190021 52 10 3.5 5.2 0.00 0.03 0.03 61 1010.8
20260508185519 53 358 4.3 5.2 0.00 0.03 0.03 61 1010.7
20260508185017 53 307 3.5 3.5 0.00 0.03 0.03 61 1010.5
20260508184514 53 296 0.9 0.9 0.00 0.03 0.03 64 1010.6
20260508184011 52 342 2.6 2.6 0.00 0.03 0.03 65 1010.6
20260508183507 52 349 3.5 5.2 0.00 0.03 0.03 66 1010.6
20260508183002 52 331 4.3 5.2 0.00 0.03 0.03 64 1010.8
20260508182459 52 19 3.5 3.5 0.00 0.03 0.03 67 1010.7
20260508181955 51 0 4.3 6.1 0.00 0.03 0.03 68 1010.8
20260508181451 51 16 5.2 7.0 0.00 0.03 0.03 72 1010.7
20260508180949 52 344 8.7 9.6 0.00 0.03 0.03 71 1010.8
20260508180446 52 283 1.7 1.7 0.00 0.03 0.03 59 1010.9
20260508175942 51 290 3.5 5.2 0.00 0.03 0.03 63 1010.9
20260508175438 51 324 5.2 6.1 0.00 0.03 0.03 61 1010.8
20260508174936 51 290 4.3 5.2 0.00 0.03 0.03 61 1011.0
20260508174434 53 329 7.0 7.8 0.00 0.03 0.03 63 1010.9
20260508173930 54 223 1.7 1.7 0.00 0.03 0.03 56 1010.9
20260508173428 52 264 0.9 0.9 0.00 0.03 0.03 56 1011.0
20260508172923 53 255 2.6 2.6 0.07 0.03 0.03 61 1011.1
20260508172421 53 272 4.3 5.2 0.07 0.03 0.03 51 1011.1
20260508171917 53 301 3.5 5.2 0.07 0.03 0.03 55 1011.1
20260508171413 52 267 3.5 3.5 0.00 0.02 0.02 55 1011.0
20260508170910 51 261 2.6 3.5 0.00 0.02 0.02 60 1011.2
20260508170408 51 295 1.7 2.6 0.00 0.02 0.02 62 1011.2
20260508165904 52 275 1.7 2.6 0.00 0.02 0.02 57 1011.5
20260508165402 51 266 3.5 3.5 0.00 0.02 0.02 60 1011.4
20260508164857 51 249 0.9 0.9 0.00 0.02 0.02 63 1011.4
20260508164355 50 255 0.9 1.7 0.00 0.02 0.02 64 1011.5
20260508163852 50 218 1.7 1.7 0.00 0.02 0.02 61 1011.7
20260508163350 49 258 0.9 1.7 0.00 0.02 0.02 69 1011.7
20260508162851 48 270 1.7 2.6 0.00 0.02 0.02 67 1011.8
20260508162349 49 273 4.3 5.2 0.00 0.02 0.02 67 1011.8
20260508161845 50 297 1.7 2.6 0.00 0.02 0.02 68 1011.9
20260508161343 50 212 1.7 2.6 0.00 0.02 0.02 63 1011.9
20260508160840 49 254 0.9 0.9 0.00 0.02 0.02 67 1011.7
20260508160338 50 245 2.6 2.6 0.00 0.02 0.02 66 1011.8
20260508155834 48 197 0.9 1.7 0.00 0.02 0.02 68 1012.0
20260508155332 49 284 0.9 1.7 0.00 0.02 0.02 66 1011.9
20260508154828 48 260 1.7 2.6 0.00 0.02 0.02 67 1011.9
20260508154326 49 276 3.5 3.5 0.00 0.02 0.02 65 1011.8
20260508153822 50 211 2.6 2.6 0.00 0.02 0.02 65 1011.7
20260508153321 49 224 2.6 3.5 0.00 0.02 0.02 68 1011.7
20260508152815 48 222 1.7 1.7 0.00 0.02 0.02 62 1011.8
20260508152312 48 238 3.5 3.5 0.00 0.02 0.02 73 1011.7
20260508151808 49 271 0.9 0.9 0.00 0.02 0.02 71 1011.7
20260508151305 49 234 1.7 2.6 0.00 0.02 0.02 72 1011.7
20260508150802 48 230 0.9 0.9 0.00 0.02 0.02 71 1011.8
20260508150258 48 222 3.5 3.5 0.00 0.02 0.02 74 1011.9
20260508145755 48 228 1.7 1.7 0.00 0.02 0.02 73 1011.6
20260508145251 47 273 0.9 1.7 0.00 0.02 0.02 76 1011.6
20260508144748 47 254 3.5 5.2 0.00 0.02 0.02 78 1011.7
20260508144246 46 213 1.7 1.7 0.00 0.02 0.02 74 1011.7
20260508143743 46 257 1.7 1.7 0.00 0.02 0.02 79 1011.8
20260508143240 45 241 2.6 2.6 0.00 0.02 0.02 79 1011.5
20260508142736 45 240 2.6 2.6 0.00 0.02 0.02 81 1011.7
20260508142233 45 226 2.6 3.5 0.00 0.02 0.02 81 1011.7
20260508141730 45 250 3.5 3.5 0.00 0.02 0.02 82 1011.6
20260508141227 44 233 0.9 1.7 0.00 0.02 0.02 83 1011.7
20260508140725 43 237 1.7 1.7 0.00 0.02 0.02 85 1011.6
20260508140221 43 238 0.0 0.9 0.00 0.02 0.02 86 1011.6
20260508135717 43 234 1.7 1.7 0.00 0.02 0.02 86 1011.7
20260508135213 43 233 1.7 1.7 0.00 0.02 0.02 88 1011.6
20260508134709 43 213 3.5 3.5 0.00 0.02 0.02 89 1011.4
20260508134207 43 231 2.6 2.6 0.00 0.02 0.02 89 1011.6
20260508133703 43 235 2.6 2.6 0.00 0.02 0.02 89 1011.8
20260508133201 42 245 2.6 2.6 0.00 0.02 0.02 88 1011.8
20260508132659 42 218 2.6 2.6 0.00 0.02 0.02 88 1011.9
20260508132156 42 226 1.7 2.6 0.00 0.02 0.02 89 1011.7
20260508131651 42 221 1.7 2.6 0.00 0.02 0.02 91 1011.7
20260508131148 41 213 4.3 5.2 0.00 0.02 0.02 90 1011.6
20260508130644 41 212 5.2 7.0 0.00 0.02 0.02 88 1011.7
20260508130142 43 213 7.0 7.0 0.00 0.02 0.02 90 1011.8
20260508125637 44 238 0.9 1.7 0.00 0.02 0.02 91 1011.9
20260508125134 43 222 1.7 2.6 0.00 0.02 0.02 90 1011.7
20260508124632 43 223 1.7 2.6 0.00 0.02 0.02 92 1011.7
20260508124129 43 264 1.7 1.7 0.00 0.02 0.02 93 1011.6
20260508123627 42 238 1.7 1.7 0.00 0.02 0.02 93 1011.5
20260508123124 42 198 3.5 5.2 0.00 0.02 0.02 95 1011.5
20260508122620 42 246 0.9 0.9 0.00 0.02 0.02 96 1011.5
20260508122118 42 246 0.0 0.0 0.00 0.02 0.02 96 1011.5
20260508121616 42 228 0.0 0.0 0.00 0.02 0.02 97 1011.6
20260508121114 42 262 0.9 0.9 0.00 0.02 0.02 97 1011.4
20260508120611 42 248 0.0 0.0 0.00 0.02 0.02 97 1011.5
20260508120109 41 234 0.9 0.9 0.00 0.02 0.02 98 1011.3
20260508115606 42 237 0.9 0.9 0.00 0.02 0.02 98 1011.2
20260508115103 41 245 0.0 0.9 0.00 0.02 0.02 98 1011.0
20260508114600 41 231 0.0 0.0 0.00 0.02 0.02 99 1010.9
20260508114056 41 230 0.0 0.0 0.00 0.02 0.02 99 1010.9
20260508113554 41 239 0.0 0.0 0.05 0.02 0.02 99 1010.9
20260508113052 41 241 0.0 0.0 0.05 0.02 0.02 99 1010.9